Simultaneous Nadir Overpasses (SNOs) Predictions

Prediction of SNOs between LANDSAT-8 and METOP-B Satellite Orbit:

Table of predicted SNOs for the next 14.0 days since TLE Epoch: 4/15/2016
Index Date (LANDSAT-8) Time (LANDSAT-8) Lat,Lon (LANDSAT-8) SZA (LANDSAT-8 ) Date (METOP-B) Time (METOP-B) Lat,Lon (METOP-B) SZA (METOP-B ) Distance(km) Time Diff (sec)
1 04/17/2016 17:36:40 -81.12, 135.13 107.65 04/17/2016 17:35:35 -81.11, 135.16 107.67 0.52 65
2 04/17/2016 18:26:05 81.15, -56.76 72.42 04/17/2016 18:26:13 81.14, -56.66 72.43 1.86 8
3 04/20/2016 13:10:54 -81.11,-158.47 108.60 04/20/2016 13:09:58 -81.11,-158.51 108.63 0.83 56
4 04/20/2016 14:00:19 81.14, 9.61 71.46 04/20/2016 14:00:36 81.14, 9.65 71.47 0.65 17
5 04/23/2016 08:45:08 -81.11, -92.12 109.54 04/23/2016 08:44:21 -81.11, -92.21 109.57 1.62 47
6 04/23/2016 09:34:32 81.13, 75.93 70.51 04/23/2016 09:34:58 81.14, 75.93 70.53 0.19 26
7 04/26/2016 04:19:20 -81.12, -25.47 110.41 04/26/2016 04:18:42 -81.12, -25.57 110.44 1.85 38
8 04/26/2016 05:08:45 81.15, 142.56 69.64 04/26/2016 05:09:20 81.14, 142.56 69.66 0.36 35
9 04/28/2016 23:53:34 -81.11, 40.77 111.31 04/28/2016 23:53:05 -81.11, 40.68 111.33 1.62 29




NCC Satellite Simultaneous Nadir Overpasses (SNOs) Prediction Service
